Tracking 30922 objects as of 2-Jul-2025
HD Live streaming from Space Station
objects crossing your sky now

NATO 3D

Track NATO 3D now!
NATO 3D is classified as:


NORAD ID: 15391
Int'l Code: 1984-115A
Perigee: 36,905.9 km
Apogee: 37,800.5 km
Inclination: 14.3 °
Period: 1,516.5 minutes
Semi major axis: 43724 km
RCS: 5.3188 m2 (large)
Launch date: November 14, 1984
Source: North Atlantic Treaty Organization (NATO)
Launch site: AIR FORCE EASTERN TEST RANGE (AFETR)
Your satellite tracking list
ION-MK01
Track 1 satellite(s)




NASA's NSSDC Master Catalog

Two Line Element Set (TLE):
1 15391U 84115A   25182.20817271 -.00000246  00000-0  00000-0 0  9997
2 15391  14.3024 357.3244 0102298 123.2212 224.0963  0.94955531144543
Source of the keplerian elements: AFSPC